Lid_Strength_Index
6 6 6 6 7 6 6 7 6 6 7 7 7 8 8 7 7 6 6 5 5 4 4 2 1 2 1 1 1 1 1 1
6 6 7 7 8 8 8 8 7 7 8 9 9 10 9 9 8 7 7 7 7 7 6 6 4 1 1 2 2 2 2 1
7 8 8 9 9 9 8 8 8 8 8 9 9 10 10 10 9 9 8 8 7 6 6 6 5 5 4 1 2 3 3 2
8 9 9 10 10 9 9 9 9 9 9 9 9 10 11 11 11 10 10 8 7 7 6 5 5 5 5 3 1 2 3 3
9 10 10 9 11 10 10 10 10 9 10 10 11 12 12 12 12 11 9 8 7 7 6 6 6 5 4 2 1 1 2 4
9 10 10 10 10 11 11 11 11 11 11 11 11 11 11 11 11 11 10 8 7 6 6 6 6 5 4 3 2 1 2 2
9 9 9 10 11 11 11 11 12 11 11 11 11 11 12 12 11 11 10 9 8 7 6 6 5 5 4 3 2 1 1 2
11 11 11 12 12 12 12 12 12 12 12 12 11 11 11 12 11 11 10 9 8 8 7 7 7 5 4 4 3 2 1 2
12 12 12 12 12 12 12 12 13 12 12 12 12 11 11 11 11 11 10 10 9 8 8 8 8 6 5 5 4 3 1 1
13 13 13 12 12 12 13 13 13 12 12 12 12 11 11 12 11 10 11 11 11 10 9 9 8 7 6 5 3 3 2 1
13 13 13 13 12 12 13 13 13 13 12 12 12 11 11 11 12 13 12 12 12 12 11 9 9 8 7 6 5 3 3 1
13 13 12 12 12 13 14 14 14 14 13 13 12 11 11 12 12 12 13 12 12 12 11 10 10 10 9 9 8 3 4 2
13 13 13 12 13 13 14 14 14 13 13 13 12 12 12 12 13 13 13 14 13 13 12 12 11 11 10 10 11 9 3 2
13 14 14 14 13 14 14 14 14 13 13 13 13 12 12 12 13 13 13 13 13 13 13 13 12 11 12 11 11 11 9 3
13 14 14 14 13 14 14 14 14 14 13 13 14 13 13 13 13 13 14 14 14 14 13 13 13 12 12 12 12 10 7 5
14 14 14 13 13 14 14 14 13 13 13 14 14 13 14 13 13 14 15 15 14 14 14 14 13 13 13 13 12 12 11 11
14 14 14 14 13 14 13 14 14 14 14 14 14 14 14 15 14 15 15 16 16 15 15 15 14 14 13 14 14 14 14 14
13 13 12 12 12 12 13 13 14 14 14 15 15 16 16 16 15 15 16 16 16 17 17 16 15 14 13 14 15 15 16 16
13 12 12 12 11 11 11 12 13 14 14 14 14 15 16 16 17 17 17 17 18 18 17 17 16 15 14 14 15 16 17 17